TIME,DELAY(SENSOR),PRES,OXYGEN,RAWTEMP,T(OPTODE),TCPHASE,FLUOR,BETA(BETA700),BETA(BETA412),BETA(BETA440),CDOM,C(CSC),ED(ED412.40),ED(ED444.00),ED(ED489.70),ED(ED554.30),LU(LU411.80),LU(LU443.40),LU(LU489.60),LU(LU554.10),COMP,TILTX,TILTY,CHECK
1343965410,5805,879.9600219726562000,43.2049484252929700,659.4345703125000000,4.6465840339660645,54.5101203918457000,53,100,89,79,81,15366,2147756278,2147419227,2148002962,2147875849,2147639387,2147066413,2148254372,2147198720,1163,4,13,17400
1343969006,5809,958.4199829101562000,49.4853515625000000,668.2855224609375000,4.3548178672790530,53.7177696228027340,53,99,90,80,82,15369,2147757641,2147418340,2148007177,2147874285,2147640338,2147057115,2148262061,2147198354,1714,4,13,14632
1343972606,5808,981.2999877929688000,49.0736885070800800,670.0081176757812000,4.2979297637939450,53.8017501831054700,53,98,89,79,80,15369,2147760722,2147419428,2148004754,2147877010,2147645970,2147058020,2148255826,2147199661,178,4,13,46581
1343976206,5809,988.0900268554688000,47.7346801757812500,670.5725708007812000,4.2792801856994630,53.9965209960937500,53,98,85,81,83,15368,2147764800,2147419501,2148006701,2147873801,2147646244,2147061293,2148256667,2147199232,407,4,13,34696
1343979806,5808,991.8200073242188000,47.4547195434570300,670.8856811523438000,4.2689361572265625,54.0332984924316400,54,98,84,79,83,15368,2147759277,2147419611,2148006061,2147874624,2147642212,2147061138,2148256640,2147197997,216,5,13,337
1343983406,5808,990.5399780273438000,47.5642089843750000,671.9591064453125000,4.2334589958190920,54.0349617004394500,53,99,89,79,80,15366,2147759488,2147420772,2148005266,2147875062,2147645028,2147062290,2148259757,2147197970,94,5,13,23159
1343987006,5811,980.2000122070312000,47.8022193908691400,672.7678833007812000,4.2067179679870605,54.0105400085449200,53,100,87,77,82,15364,2147760438,2147417746,2148004681,2147875766,2147646811,2147064073,2148253430,2147198198,86,5,13,24893
1343990606,5809,987.9099731445312000,47.9580307006835940,673.4315185546875000,4.1847758293151855,53.9999504089355500,53,98,88,78,81,15365,2147761993,2147423177,2148004845,2147876818,2147643355,2147064182,2148260169,2147195492,55,5,13,56238
1343994206,5807,988.5999755859375000,47.7936897277832000,673.2321166992188000,4.1913719177246090,54.0190010070800800,53,98,87,78,81,15362,2147758738,2147417837,2148004269,2147874989,2147644406,2147064365,2148256612,2147199067,475,4,13,37440
1343997806,5811,990.8800048828125000,47.7109603881835940,673.1417236328125000,4.1943612098693850,54.0279197692871100,52,98,87,79,81,15354,2147757970,2147419181,2148006454,2147876352,2147646518,2147061988,2148253851,2147201910,194,4,13,1609
1344001406,5810,995.4199829101562000,47.8890419006347660,673.7199096679688000,4.1752381324768070,54.0071907043457000,53,98,87,79,82,15353,2147758902,2147422171,2148006253,2147874322,2147645174,2147060909,2148259072,2147197284,312,5,13,59232
1344005006,5808,991.3599853515625000,49.3990402221679700,674.4749755859375000,4.1502571105957030,53.8085289001464840,51,100,85,78,82,15354,2147761042,2147418139,2148004818,2147877924,2147643337,2147058569,2148257938,2147195821,3363,5,13,9624
1344008606,5806,989.9099731445312000,48.2882614135742200,674.0975952148438000,4.1627430915832520,53.9598693847656250,52,100,87,78,82,15353,2147761371,2147421458,2148005650,2147875017,2147640795,2147061531,2148259200,2147200155,3581,4,13,35568
1344012206,5808,998.9500122070312000,48.3586997985839840,673.7249755859375000,4.1750659942626950,53.9467887878418000,53,98,88,81,81,15146,2147759122,2147422080,2148005019,2147876854,2147645659,2147062308,2148260470,2147198482,2946,4,13,45582
1344015806,5810,994.2700195312500000,47.5555686950683600,673.3875122070312000,4.1862320899963380,54.0533218383789060,53,100,85,79,82,15188,2147758134,2147421275,2148009142,2147877138,2147645010,2147062930,2148265718,2147197257,336,4,13,33680
1344019406,5810,999.9000244140625000,47.8709411621093750,673.6787719726562000,4.1765961647033690,54.0108604431152340,53,99,90,78,81,15187,2147757842,2147419501,2148005156,2147877229,2147648795,2147066486,2148260854,2147199332,3213,4,13,20884
1344023006,5810,996.3599853515625000,47.6484794616699200,672.9390258789062000,4.2010631561279300,54.0337409973144500,52,130,89,78,82,15156,2147762432,2147422546,2148005467,2147876553,2147643099,2147059264,2148251410,2147198747,227,5,13,42506
1344026606,5810,999.3099975585938000,47.7764396667480500,673.5991210937500000,4.1792340278625490,54.0213394165039060,53,100,87,80,82,15159,2147759213,2147419721,2148010486,2147880137,2147647195,2147064356,2148260525,2147198774,3553,4,13,57940
1344030206,5810,997.5999755859375000,47.2726707458496100,673.5051269531250000,4.1823410987854000,54.0957183837890600,52,99,88,80,82,15153,2147761197,2147419264,2148006665,2147874166,2147645568,2147062198,2148260937,2147199552,3465,4,13,52554
1344033806,5809,1005.1199951171875000,47.7479515075683600,673.7512817382812000,4.1741981506347660,54.0339317321777340,52,101,88,79,82,15342,2147761819,2147418011,2148004507,2147874258,2147644288,2147058980,2148257664,2147198317,3366,5,13,22508
1344037406,5807,997.3300170898438000,47.0597686767578100,673.4672851562500000,4.1835918426513670,54.1217002868652340,52,98,88,80,81,15355,2147760219,2147422445,2148005458,2147873517,2147646070,2147060370,2148258121,2147197641,191,4,13,45217
1344041006,5809,997.5999755859375000,47.7317810058593750,674.0590820312500000,4.1640148162841800,54.0361404418945300,53,98,87,79,83,15358,2147761417,2147418432,2148006537,2147876352,2147645312,2147059657,2148267446,2147196672,3069,4,13,37428
1344044606,5810,998.5000000000000000,47.8459396362304700,673.9688720703125000,4.1669998168945310,54.0192794799804700,53,98,87,80,82,15354,2147759606,2147420681,2148004132,2147875620,2147645092,2147059556,2148261193,2147199853,94,5,13,26731
1344048206,5810,1009.7000122070312000,47.7881393432617200,673.3906860351562000,4.1861248016357420,54.0229911804199200,54,98,87,79,83,15354,2147763446,2147419273,2148004699,2147871186,2147644827,2147060873,2148260416,2147197805,3452,4,13,21935
1344051806,5810,1002.5499877929688000,47.1444816589355500,672.6243286132812000,4.2114701271057130,54.1004981994628900,52,101,88,79,82,15355,2147764909,2147418331,2148004763,2147877686,2147643675,2147064192,2148261229,2147197513,432,4,13,34683
1344055406,5809,1005.7899780273438000,46.3698883056640600,673.2819213867188000,4.1897220611572270,54.2215881347656250,52,127,90,80,80,15351,2147761764,2147418733,2148006080,2147874916,2147644973,2147070262,2148259337,2147199542,3522,5,13,11212
1344059006,5809,1005.2600097656250000,46.6517181396484400,673.8875122070312000,4.1696949005126950,54.1899604797363300,52,98,89,79,82,15348,2147758939,2147417517,2148005604,2147875227,2147645156,2147061074,2148260845,2147197385,192,4,13,63429
1344062606,5807,1010.2800292968750000,47.6130104064941400,673.3809204101562000,4.1864490509033200,54.0477294921875000,53,98,87,80,81,15348,2147760905,2147417709,2148008045,2147875547,2147645449,2147056822,2148261321,2147198784,115,4,13,1064
1344066206,5805,1006.2299804687500000,46.7714385986328100,672.0560302734375000,4.2302570343017580,54.1483612060546900,52,100,88,80,82,15349,2147756580,2147421074,2148007917,2147874285,2147644379,2147064091,2148262290,2147200246,201,4,13,30964
1344069806,5805,1001.5900268554688000,47.4165611267089840,674.5457763671875000,4.1479129791259770,54.0868301391601560,52,103,91,79,82,15349,2147759350,2147422244,2148006848,2147879872,2147644224,2147061778,2148263323,2147199762,182,4,13,48265
1344073406,5811,1001.3699951171875000,46.7857704162597660,673.9251708984375000,4.1684470176696780,54.1717491149902340,52,98,91,81,82,15351,2147759277,2147419776,2148003574,2147876224,2147648073,2147060489,2148261056,2147201014,693,4,13,31434
1344077006,5811,995.4199829101562000,47.5592002868652340,675.1176757812500000,4.1289920806884770,54.0737190246582000,53,98,87,81,81,15348,2147757458,2147420809,2148006866,2147879204,2147642633,2147058532,2148259538,2147199597,110,4,13,45262
1344080606,5808,1000.7000122070312000,47.5753211975097660,675.2406005859375000,4.1249260902404785,54.0747413635253900,53,97,87,78,81,15290,2147759661,2147419254,2148005394,2147879158,2147644324,2147065673,2148255817,2147200768,27,5,13,16162
1344084206,5805,1001.0800170898438000,48.0478897094726560,675.1397094726562000,4.1282629966735840,54.0040702819824200,53,106,86,79,82,15346,2147761024,2147422070,2148008722,2147875904,2147644306,2147061604,2148257984,2147198710,3579,5,13,55299
1344087806,5810,1002.3400268554688000,48.7780799865722660,675.2772216796875000,4.1237139701843260,53.9048805236816400,52,98,89,79,82,15349,2147758619,2147420836,2148008137,2147875026,2147645129,2147061129,2148259986,2147197568,126,5,13,30740
1344091406,5808,1007.5599975585938000,48.0254516601562500,674.0255737304688000,4.1651268005371090,53.9932289123535160,53,100,88,79,82,15345,2147764224,2147418770,2148006390,2147874816,2147642258,2147063707,2148258834,2147198665,3497,4,13,43589
1344095006,5811,1004.3400268554688000,47.4334106445312500,674.6672973632812000,4.1438961029052730,54.0881881713867200,52,97,89,78,81,15343,2147759798,2147420041,2148004461,2147877915,2147643885,2147059894,2148259538,2147198454,3571,4,13,6835
1344098606,5807,1005.5999755859375000,47.4123115539550800,674.8914794921875000,4.1364769935607910,54.0938301086425800,52,99,87,80,82,15346,2147759286,2147418523,2148005138,2147876708,2147645440,2147060251,2148264009,2147198948,159,4,13,47832
1344102206,5810,1012.7999877929688000,47.3336181640625000,673.7122192382812000,4.1754908561706540,54.0876502990722660,52,99,87,79,82,15344,2147761060,2147418038,2148007533,2147874349,2147644516,2147059748,2148254701,2147201700,170,5,13,52662
1344105806,5806,1009.8599853515625000,46.7592811584472660,672.7470703125000000,4.2074089050292970,54.1544799804687500,52,98,88,80,82,15342,2147760356,2147419574,2148006400,2147875638,2147641590,2147062582,2148260022,2147199826,486,4,13,31133
1344109406,5810,1003.9099731445312000,45.9225807189941400,673.4517822265625000,4.1841030120849610,54.2855110168457000,52,99,86,79,81,15343,2147759113,2147420306,2148005915,2147875913,2147644004,2147055478,2148255634,2147200356,631,4,13,54209
1344109855,5808,1001.1799926757812000,46.1254386901855500,673.6522216796875000,4.1774768829345700,54.2620811462402340,54,98,86,79,83,15352,2147761654,2147421558,2148007460,2147876050,2147645485,2147064978,2148261814,2147201819,3293,4,13,62380
